Terminal Aerodrome Forecast
Issued by NWS

Home | Current Version | Previous Version | Text Only | Print | Product List | Glossary On
Versions: 1 2 3 4 5 6 7 8 9 10 11 12 13 14 15 16 17 18 19 20 21 22 23 24 25 26 27 28 29
000
FTUS46 KLOX 220800 AAA
TAFLAX
TAF AMD
KLAX 220811Z 2208/2312 27007KT P6SM SKC
     FM221200 VRB03KT P6SM BKN015
     FM221800 25007KT P6SM FEW020
     FM222100 26015KT P6SM SKC
     FM230400 26007KT P6SM SKC
     FM230900 VRB03KT P6SM BKN010=

USA.gov is the U.S. government's official web portal to all federal, state and local government web resources and services.